GW3201 Weather Reports


Display with metric or nautical units.
time (UTC)temp
F
wind
direction
speed
MPH
gust
MPH
rain 1hr
in
rain 24hr
in
rain mn
in
humidity
%
barometer
mb
20260506030508 57 211 3.0 10.0 0.00 0.14 0.08 76 1016.2
20260506030011 57 251 2.0 8.0 0.00 0.14 0.08 76 1016.1
20260506025506 58 287 4.0 12.0 0.00 0.14 0.08 76 1016.0
20260506025005 58 250 3.0 12.0 0.00 0.14 0.08 76 1016.0
20260506024525 58 250 5.0 10.0 0.00 0.14 0.08 75 1015.9
20260506024007 58 250 4.0 8.0 0.00 0.14 0.08 75 1015.8
20260506023608 59 236 4.0 9.0 0.00 0.14 0.08 75 1015.8
20260506023020 59 252 4.0 9.0 0.00 0.14 0.08 75 1015.7
20260506022548 59 247 2.0 10.0 0.00 0.14 0.08 75 1015.7
20260506022011 59 237 4.0 10.0 0.00 0.14 0.08 74 1015.7
20260506021518 59 292 2.0 8.0 0.00 0.14 0.08 74 1015.6
20260506021006 59 266 4.0 8.0 0.00 0.14 0.08 74 1015.5
20260506020504 59 268 2.0 10.0 0.00 0.14 0.08 74 1015.7
20260506020009 59 259 2.0 10.0 0.00 0.14 0.08 74 1015.5
20260506015508 60 245 3.0 10.0 0.00 0.14 0.08 74 1015.5
20260506015004 60 273 4.0 11.0 0.00 0.14 0.08 74 1015.4
20260506014522 60 221 5.0 12.0 0.00 0.14 0.08 74 1015.4
20260506014004 60 265 4.0 12.0 0.00 0.14 0.08 73 1015.3
20260506013507 60 290 5.0 12.0 0.00 0.14 0.08 73 1015.3
20260506013021 61 276 3.0 9.0 0.00 0.14 0.08 72 1015.3
20260506012508 61 242 3.0 12.0 0.00 0.14 0.08 72 1015.3
20260506012012 61 210 6.0 12.0 0.00 0.14 0.08 72 1015.4
20260506011525 62 215 4.0 12.0 0.00 0.14 0.08 71 1015.3
20260506011010 62 271 3.0 12.0 0.00 0.14 0.08 71 1015.3
20260506010508 62 246 7.0 12.0 0.00 0.14 0.08 71 1015.4
20260506010024 62 247 4.0 11.0 0.00 0.14 0.08 71 1015.3
20260506005508 62 233 6.0 10.0 0.00 0.14 0.08 71 1015.3
20260506005008 62 223 6.0 10.0 0.00 0.14 0.08 71 1015.3
20260506004509 62 239 4.0 10.0 0.00 0.14 0.08 71 1015.2
20260506004007 62 257 4.0 11.0 0.00 0.14 0.08 71 1015.3
20260506003508 62 285 3.0 11.0 0.00 0.14 0.08 71 1015.2
20260506003012 62 239 3.0 11.0 0.00 0.14 0.08 71 1015.2
20260506002513 62 199 4.0 11.0 0.00 0.14 0.08 71 1015.1
20260506002012 61 246 3.0 10.0 0.00 0.14 0.08 72 1015.1
20260506001519 61 150 4.0 10.0 0.00 0.14 0.08 72 1015.1
20260506001008 61 201 3.0 10.0 0.00 0.14 0.08 73 1015.1
20260506000508 61 236 5.0 10.0 0.00 0.14 0.08 73 1015.2
20260506000025 61 222 2.0 10.0 0.00 0.14 0.08 74 1015.2
20260505235510 61 241 3.0 8.0 0.00 0.14 0.08 74 1015.3
20260505235012 60 257 4.0 12.0 0.00 0.14 0.08 73 1015.3
20260505234533 61 277 5.0 12.0 0.00 0.14 0.08 73 1015.3
20260505234010 61 247 3.0 10.0 0.00 0.14 0.08 74 1015.3
20260505233514 60 219 3.0 11.0 0.00 0.14 0.08 74 1015.3
20260505233014 60 257 5.0 13.0 0.00 0.14 0.08 74 1015.3
20260505232503 60 236 7.0 13.0 0.00 0.14 0.08 73 1015.3
20260505232008 60 249 5.0 12.0 0.00 0.14 0.08 74 1015.3
20260505231529 60 248 5.0 11.0 0.00 0.14 0.08 74 1015.3
20260505231007 60 148 6.0 11.0 0.00 0.14 0.08 74 1015.3
20260505230508 60 258 5.0 10.0 0.00 0.14 0.08 74 1015.3
20260505230024 61 285 5.0 10.0 0.00 0.14 0.08 74 1015.3
20260505225507 61 269 4.0 11.0 0.00 0.14 0.08 73 1015.3
20260505225006 61 247 6.0 12.0 0.00 0.14 0.08 73 1015.2
20260505224531 61 236 5.0 12.0 0.00 0.14 0.08 73 1015.3
20260505224033 61 249 3.0 10.0 0.00 0.14 0.08 74 1015.3
20260505223510 61 262 5.0 10.0 0.00 0.14 0.08 73 1015.3
20260505223027 60 289 3.0 10.0 0.00 0.14 0.08 74 1015.3
20260505222506 60 245 3.0 8.0 0.00 0.14 0.08 73 1015.4
20260505222009 60 252 2.0 7.0 0.00 0.14 0.08 74 1015.4
20260505221528 60 255 4.0 7.0 0.00 0.14 0.08 74 1015.5
20260505221006 60 245 3.0 7.0 0.00 0.14 0.08 75 1015.6
20260505220517 60 246 3.0 8.0 0.00 0.14 0.08 74 1015.6
20260505220019 60 236 4.0 9.0 0.00 0.14 0.08 74 1015.6
20260505215508 60 252 4.0 9.0 0.00 0.14 0.08 74 1015.6
20260505215002 60 241 2.0 8.0 0.00 0.14 0.08 74 1015.6
20260505214503 60 228 3.0 8.0 0.00 0.14 0.08 74 1015.6
20260505214111 61 258 2.0 8.0 0.00 0.14 0.08 73 1015.6
20260505213503 61 220 1.0 7.0 0.00 0.14 0.08 73 1015.7
20260505213021 61 217 3.0 7.0 0.00 0.14 0.08 73 1015.7
20260505212507 60 155 3.0 7.0 0.00 0.14 0.08 74 1015.8
20260505212004 60 174 2.0 8.0 0.00 0.14 0.08 77 1015.8
20260505211525 59 206 3.0 8.0 0.00 0.14 0.08 76 1015.9
20260505211004 59 223 3.0 7.0 0.00 0.14 0.08 77 1015.8
20260505210502 59 197 4.0 7.0 0.00 0.14 0.08 78 1015.8
20260505210005 59 213 3.0 7.0 0.00 0.14 0.08 78 1015.9
20260505205502 58 266 3.0 7.0 0.00 0.14 0.08 79 1016.0
20260505205010 58 241 3.0 8.0 0.00 0.14 0.08 79 1016.0
20260505204525 58 210 3.0 8.0 0.00 0.14 0.08 79 1016.0
20260505204004 58 241 2.0 7.0 0.00 0.14 0.08 78 1015.9
20260505203608 58 238 2.0 5.0 0.00 0.14 0.08 78 1016.0
20260505203006 58 212 2.0 5.0 0.00 0.14 0.08 78 1016.1
20260505202504 58 246 2.0 5.0 0.00 0.14 0.08 78 1016.0
20260505202002 58 236 1.0 5.0 0.00 0.14 0.08 78 1016.0
20260505201529 58 214 2.0 5.0 0.00 0.14 0.08 78 1016.0
20260505201004 58 219 1.0 5.0 0.00 0.14 0.08 78 1016.0
20260505200504 58 232 2.0 5.0 0.00 0.14 0.08 78 1016.1
20260505200011 58 199 2.0 6.0 0.00 0.14 0.08 78 1016.1
20260505195507 58 191 2.0 6.0 0.00 0.14 0.08 79 1016.1
20260505195009 58 226 3.0 8.0 0.00 0.14 0.08 78 1016.1
20260505194518 58 236 4.0 8.0 0.00 0.14 0.08 78 1016.0
20260505194003 58 176 4.0 8.0 0.00 0.14 0.08 77 1016.1
20260505193503 58 241 4.0 8.0 0.00 0.14 0.08 76 1016.1
20260505193006 59 263 3.0 8.0 0.00 0.14 0.08 76 1016.0
20260505192504 59 189 2.0 6.0 0.00 0.14 0.08 77 1016.0
20260505192008 58 198 2.0 6.0 0.00 0.14 0.08 78 1015.9
20260505191507 58 195 3.0 6.0 0.00 0.14 0.08 79 1016.0
20260505191006 57 243 3.0 6.0 0.00 0.14 0.08 79 1016.0
20260505190503 57 270 2.0 7.0 0.00 0.14 0.08 80 1016.1
20260505190028 57 249 3.0 8.0 0.00 0.14 0.08 80 1016.1
20260505185503 57 247 3.0 8.0 0.00 0.14 0.08 79 1016.1
20260505185007 57 257 3.0 7.0 0.00 0.14 0.08 80 1016.0
20260505184527 57 238 2.0 7.0 0.00 0.14 0.08 80 1016.0
20260505184010 57 223 2.0 6.0 0.00 0.14 0.08 80 1016.0
20260505183508 57 250 0.0 6.0 0.00 0.14 0.08 81 1015.9
20260505183037 56 186 1.0 5.0 0.00 0.14 0.08 81 1015.9
20260505182505 56 233 1.0 7.0 0.00 0.14 0.08 82 1015.9
20260505182003 56 245 3.0 7.0 0.00 0.14 0.08 82 1015.9
20260505181509 56 291 2.0 5.0 0.00 0.14 0.08 83 1015.9
20260505181008 56 283 1.0 6.0 0.00 0.14 0.08 83 1015.9
20260505180503 55 288 1.0 7.0 0.00 0.14 0.08 83 1015.9
20260505180007 55 248 3.0 8.0 0.00 0.14 0.08 83 1015.8
20260505175507 55 240 2.0 8.0 0.00 0.14 0.08 84 1015.8
20260505175005 55 236 3.0 7.0 0.00 0.14 0.08 84 1015.8
20260505174510 55 251 2.0 5.0 0.00 0.14 0.08 84 1015.8
20260505174004 55 287 1.0 7.0 0.00 0.14 0.08 85 1015.6
20260505173508 55 241 3.0 7.0 0.00 0.14 0.08 85 1015.7
20260505173027 54 183 2.0 5.0 0.00 0.14 0.08 86 1015.6
20260505172507 54 175 1.0 8.0 0.00 0.14 0.08 86 1015.5
20260505172007 54 254 2.0 8.0 0.00 0.14 0.08 86 1015.6
20260505171517 54 243 0.0 8.0 0.00 0.14 0.08 86 1015.5
20260505171008 54 259 2.0 6.0 0.00 0.14 0.08 86 1015.5
20260505170509 54 238 2.0 10.0 0.00 0.14 0.08 86 1015.6
20260505170013 54 260 5.0 11.0 0.00 0.14 0.08 86 1015.5
20260505165504 54 234 4.0 11.0 0.00 0.14 0.08 86 1015.6